IRIDIUM 33 DEB, 35299

Orbit data source: Space-Track

IRIDIUM 33 DEB, 35299 is space debris in LEO originally from a launch on Sun, 14 Sep 1997 UTC launched from the Tyuratam Missile And Space Complex (TTMTR). The debris from Iridium 33, an American commercial communications satellite, has been tracked extensively since its accidental collision with the defunct Russian satellite Cosmos 2251 in 2009. This event, occurring at high speed in low Earth orbit (LEO), generated thousands of pieces of space debris, significantly increasing the risk of further collisions. The Iridium 33 debris cloud has impacted space traffic management and orbital debris mitigation strategies, making it a subject of ongoing study in space situational awareness.

Loading next visibility...
Identifier
35299, 1997-051PP
Orbit
LEO
Country
Flag of USUS
Related business
Manufacturer
Unknown
Mission
Spacecraft
Bus & Motor
Unknown
Mass
Unknown
Launch date (UTC)
1997-09-14 (28 years ago)
Launch vehicle
Unknown
Launch site
Tyuratam Missile And Space Complex (TTMTR)
Object type
Payload
Rocket body
Debris
Shape & HBR
Unknown shape, 0.1 m
Radar Cross Section
Small (<0.1 m²)

Expand to show TLE details & history
Last TLE update: 7 hours ago

TLE from 7 hours ago
0 IRIDIUM 33 DEB
1 35299U 97051PP  26037.93612248  .00006438  00000-0  19476-2 0  9993
2 35299  86.2904   8.7092 0053723 278.7295 137.0157 14.41400808871409
Epoch: 2026-02-06T22:28Z
TLE epoch observation values (Epoch: 2026-02-06T22:28:00.982Z)
Latitude
56.08206°
Longitude
-99.85817°
Altitude
791.443 km
Speed
7.449 km/s
True Right ascension
00h 56m 51s
True Declination
55° 55' 24"
Sunlit
Object was in daylight at epoch
Visualization orbit readout
Latitude
Unknown
Longitude
Unknown
Altitude
Unknown
Speed
Unknown
Apparent Right ascension
Unknown
Apparent Declination
Unknown
Sunlit
N/A
Visualization observer readout
Local Sidereal Time
08:00:20
Azimuth
Unknown
Elevation
Unknown
Doppler factor
Unknown
Orbital elements
Apogee altitude
789.129 km
Perigee altitude
712.531 km
Semi-major axis
7,128.967 km
Eccentricity
0.00537
Inclination
86.2904°
RAAN
8.7092°
Arg. of periapsis
278.7295°
True anomaly
137.43337°
Mean anomaly
137.0157°
Eccentric anomaly
137.22474°
Mean motion
3.60581 °/min
Orbital period
99.84 mins
BSTAR
0.0019476
Loading maneuver chart data...
Computing Atmospheric mass density...

Documentation

Showing up to 5 results
|